Hourly Data Report for May 09, 2021

MIRAMICHI RCS
NEW BRUNSWICK
Current Station Operator: ECCC - MSC

47°00'34.000" N
65°27'54.000" W
33.00 m
8100989
71744
ACQ

Download Data

Hourly Data (May 2021)
Hourly Data Report for May 9, 2021
TIME
LST
Temp Definition
°C
Dew Point Definition
°C
Rel Hum Definition
%
Precip. Amount Definition
mm

Wind Dir Definition
10's deg

Wind Spd Definition
km/h
Visibility Definition
km
Stn Press Definition
kPa
Hmdx Definition


Wind Chill Definition


Weather Definition


00:00 4.7 3.4 91 LegendMM 1 14   99.76     LegendNANA
01:00 4.4 3.1 91 LegendMM 1 14   99.73     LegendNANA
02:00 4.6 3.1 90 LegendMM 36 16   99.67     LegendNANA
03:00 4.7 3.1 89 LegendMM 35 14   99.66     LegendNANA
04:00 4.5 3.2 91 LegendMM 33 11   99.66     LegendNANA
05:00 4.4 3.2 92 LegendMM 32 11   99.69     LegendNANA
06:00 4.7 3.2 90 LegendMM 32 13   99.73     LegendNANA
07:00 5.5 3.6 87 LegendMM 31 13   99.74     LegendNANA
08:00 6.9 3.9 81 LegendMM 30 17   99.74     LegendNANA
09:00 7.7 4.2 78 LegendMM 31 14   99.76     LegendNANA
10:00 7.6 3.9 77 LegendMM 36 11   99.80     LegendNANA
11:00 8.4 4.1 74 LegendMM 32 11   99.85     LegendNANA
12:00 8.5 3.2 69 LegendMM 36 14   99.91     LegendNANA
13:00 9.9 3.6 65 LegendMM 33 15   99.95     LegendNANA
14:00 11.1 3.1 58 LegendMM 29 20   99.94     LegendNANA
15:00 10.2 3.3 62 LegendMM 34 14   99.99     LegendNANA
16:00 10.8 3.7 61 LegendMM 33 19   100.08     LegendNANA
17:00 10.1 3.9 65 LegendMM 32 10   100.17     LegendNANA
18:00 9.3 4.0 70 LegendMM 32 7   100.22     LegendNANA
19:00 9.2 3.5 67 LegendMM 34 4   100.28     LegendNANA
20:00 8.5 2.7 67 LegendMM 33 5   100.34     LegendNANA
21:00 8.2 2.5 67 LegendMM 33 6   100.41     LegendNANA
22:00 8.4 2.2 65 LegendMM 33 6   100.46     LegendNANA
23:00 8.3 2.3 65 LegendMM 33 7   100.49     LegendNANA

Notes on Data Quality.

Legend

  • E = Estimated
  • M = Missing
  • NA = Not Available*
  • [empty] = Indicates an unobserved value
Date modified: